Tracking 20621 objects as of 29-Mar-2020
HD Live streaming from Space Station
objects crossing your sky now

AYAME 1 DEB

Track AYAME 1 DEB now!


NORAD ID: 32483
Int'l Code: 1979-009D
Perigee: 12,423.5 km
Apogee: 34,276.1 km
Inclination: 9.4 °
Period: 849.9 minutes
Semi major axis: 29720 km
RCS: 0.003 m2 (small)
Launch date: February 6, 1979
Source: Japan (JPN)
Launch site: TANEGASHIMA SPACE CENTER (TNSTA)

Note: This is SATELLITE DEBRIS
aabbcc
Your satellite tracking list
Your tracking list is empty




NASA's NSSDC Master Catalog

Two Line Element Set (TLE):
1 32483U 79009D   20088.08281515 -.00000102 +00000-0 +00000-0 0  9997
2 32483 009.4278 049.2638 3676315 280.3004 295.7756 01.69438546074527
Source of the keplerian elements: AFSPC